Location: Blazny
(46.0612°N, 84.4033°W)
Time: 10:37:22
(UTC-04:00)

ARIANE 6 FM1 Upper Stage - Pass Details

Date: 20 September 2024
Orbit: 564 x 594 km, 62.0° (Epoch: 03 October)

Event Time Altitude Azimuth Distance (km) Brightness Sun altitude
Exits shadow 03:22:13 14° 39° (NE) 1,680 5.7 -37.1°
Drops below altitude 10° 03:23:45 10° 59° (ENE) 1,935 6.0 -36.9°
Sets 03:26:54 0° 82° (E) 2,837 6.8 -36.6°
